Back to catalog

GOES 6 AKM

AliveMEO
NORAD 14069·ROCKET BODY·🇺🇸 United States

Launched Apr 28, 1983 from Cape Canaveral Space Force Station

Loading…

Next Passes (next 24 hours)

TLE

FreshSource: Space-Track

Epoch: Sep 14, 2026, 10:23 UTC

1 14069U 83041C   26257.43284804 -.00000225  00000-0  00000-0 0  9991
2 14069  15.5508 320.8321 1684780 120.9400 268.3560  0.84337131 40582

Track GOES 6 AKM in real time with AllMySat

Download on the App Store